Temperature
22 22 22 21 21 20 20 20 20 20 20 20 20 20 19 19 19 19 19 19 19 19 19 18 18 18 18 18 18 18 18 18 18 18 18 18 18 18 18 18 18 18 18
22 22 22 21 21 20 20 20 20 20 20 20 20 19 19 19 19 19 19 19 18 18 18 18 18 18 18 18 18 18 18 18 18 18 18 18 18 18 18 18 18 18 18
22 22 21 21 21 20 20 20 19 19 19 19 19 19 19 19 19 19 18 18 18 18 18 18 18 18 18 18 18 18 18 18 18 18 18 18 18 18 18 18 18 18 18
22 21 21 21 21 20 20 19 19 19 19 19 19 19 19 19 19 19 18 18 18 18 18 18 18 18 18 18 18 18 18 18 18 18 17 17 17 18 18 18 18 18 18
22 21 21 21 20 20 20 19 19 19 19 19 19 19 19 19 18 18 18 18 18 18 18 18 18 18 18 18 18 18 18 18 18 18 17 17 17 17 18 18 18 18 18
21 21 21 21 20 20 20 19 19 19 19 19 19 19 18 18 18 18 18 18 18 18 18 18 18 18 18 18 18 18 18 18 18 18 17 17 17 17 17 18 18 18 17
22 21 21 21 20 20 20 19 19 19 19 19 18 18 18 18 18 18 18 18 18 18 18 18 18 18 18 18 18 17 17 18 18 17 17 17 17 17 17 17 17 17 17
22 21 21 21 20 20 19 19 19 19 19 18 18 18 18 18 18 18 18 18 18 18 18 18 18 18 18 18 17 17 17 17 17 17 17 17 17 17 17 17 17 17 17
21 21 20 20 20 20 19 19 19 19 18 18 18 18 18 18 18 18 18 18 18 18 17 18 18 18 18 18 17 17 17 17 17 17 17 17 17 17 17 17 17 17 17
21 21 20 20 19 19 19 19 19 19 18 18 18 18 18 17 17 17 17 17 17 17 17 17 17 17 17 17 17 17 17 17 17 17 17 17 17 17 17 17 17 17 17
21 20 20 20 19 19 19 19 19 18 18 18 18 17 17 17 17 17 17 17 17 17 17 17 17 17 17 17 17 17 17 17 17 17 17 17 17 17 17 17 17 17 17
21 20 20 20 19 19 19 19 18 18 18 17 17 17 17 17 17 17 17 17 17 17 17 17 17 17 17 17 17 17 17 17 17 17 17 17 17 17 17 17 17 16 17
21 20 19 19 19 19 18 18 18 18 18 17 17 17 17 17 17 17 17 17 17 17 17 17 17 17 17 17 17 17 17 17 17 17 17 17 17 17 17 16 16 16 16
20 20 20 19 19 19 18 18 18 18 17 17 17 17 17 17 16 16 16 17 17 17 17 17 17 17 16 17 17 17 17 17 17 17 17 17 16 16 16 16 16 16 16
20 20 19 19 18 18 18 18 17 17 17 17 17 17 17 16 16 16 16 16 16 16 16 16 16 16 16 16 16 16 16 16 16 16 16 16 16 16 16 16 16 16 16
20 20 19 19 18 18 18 18 17 17 17 17 17 17 16 16 16 16 16 16 16 16 16 16 16 16 16 16 16 16 16 16 16 16 16 16 16 16 16 16 16 16 16
20 20 19 18 18 18 18 18 17 17 17 17 17 17 16 16 16 16 16 16 16 16 16 16 16 16 16 16 16 16 16 16 16 16 16 16 16 16 16 16 16 16 16
20 19 19 18 18 18 17 17 17 17 17 17 17 17 16 16 16 16 16 16 16 16 16 16 16 16 16 16 16 16 16 16 16 16 16 16 16 15 15 15 15 16 15
20 19 18 18 18 17 17 17 17 17 17 17 16 16 16 16 16 16 16 16 15 15 15 15 15 15 15 15 16 16 16 16 16 16 16 16 16 15 15 15 15 15 15
19 19 18 18 17 17 17 17 17 16 16 16 16 16 16 16 16 16 15 16 15 15 15 15 15 15 15 15 15 16 16 16 16 16 16 16 16 15 15 15 15 15 15
19 18 18 17 17 17 17 17 16 16 16 16 16 16 16 16 16 16 15 15 15 15 15 15 15 15 15 15 15 15 15 16 16 16 16 15 15 15 15 15 15 15 15
19 18 18 17 17 17 17 17 16 16 16 16 16 16 16 16 15 15 15 15 15 15 15 15 15 15 15 15 15 15 15 15 15 15 15 15 15 15 15 15 15 15 15
19 18 18 17 17 17 16 16 16 16 16 16 15 15 15 15 15 15 15 15 15 15 15 15 15 15 15 15 15 15 15 15 15 15 15 15 15 15 15 15 15 15 14
19 18 18 17 17 16 16 16 16 16 15 15 15 15 15 15 15 15 15 15 15 14 14 14 14 15 14 14 15 15 15 15 15 15 15 15 15 15 15 15 14 15 14
19 18 17 17 16 16 16 16 16 15 15 15 15 15 15 15 15 15 15 15 14 14 14 14 14 14 14 14 14 14 15 15 15 15 14 15 15 15 15 15 14 14 14
19 18 17 17 16 16 16 16 15 15 15 15 15 15 15 15 15 14 14 14 14 14 14 14 14 14 14 14 14 14 14 14 14 15 14 14 14 14 15 14 14 14 14
Wind_Speed
15 15 15 14 12 12 11 11 11 11 10 10 11 11 11 11 12 12 11 11 11 10 9 8 8 9 9 9 9 9 9 9 9 8 8 8 8 8 8 8 8 11 13
18 16 15 14 13 11 12 11 11 11 10 10 10 10 10 10 10 10 10 10 10 9 8 8 8 8 8 8 8 8 8 8 7 7 7 7 7 7 8 8 8 10 13
18 16 15 14 13 11 11 11 10 11 10 10 10 10 10 9 9 9 9 9 8 8 8 7 7 7 8 7 7 7 7 6 5 6 6 6 8 9 10 10 11 11 12
17 16 15 15 13 12 12 11 10 10 10 9 9 9 9 9 9 8 8 8 7 7 7 7 7 7 7 6 6 6 6 5 4 4 4 5 7 10 12 12 12 11 12
16 17 16 15 13 12 12 11 10 10 9 9 9 9 9 8 8 8 8 7 7 7 7 7 7 6 6 6 5 5 4 4 3 3 2 5 6 11 12 11 11 11 10
16 17 16 16 14 13 12 11 10 10 9 9 9 8 8 7 7 7 7 7 6 6 6 6 6 6 5 5 4 4 3 3 2 3 3 6 7 10 11 11 10 10 10
14 16 16 16 15 14 12 11 10 10 9 9 8 7 7 6 6 6 7 6 6 6 5 5 5 5 5 4 4 4 3 2 3 1 2 6 9 10 11 10 9 10 10
14 15 15 16 15 13 12 11 10 9 9 8 7 7 6 6 6 6 6 6 6 5 5 4 4 4 4 4 4 4 3 3 2 3 4 7 9 11 12 10 9 9 9
13 13 12 14 13 13 13 11 10 10 9 9 8 7 6 6 6 6 6 6 5 5 5 4 4 4 4 4 5 4 4 4 4 2 3 8 11 11 11 11 9 8 8
9 11 10 12 12 12 12 12 11 11 10 9 9 8 7 6 6 7 6 6 6 5 5 5 5 4 5 5 5 5 5 4 3 3 4 8 12 11 10 10 9 8 8
8 9 9 10 9 9 11 12 12 11 10 9 9 8 7 6 6 6 6 7 7 6 6 6 6 6 6 7 8 7 6 4 3 3 6 10 12 11 10 9 9 8 8
8 8 9 9 8 7 7 9 8 8 9 7 6 6 6 5 4 5 8 8 7 7 7 8 8 8 8 7 9 9 6 6 4 4 8 12 12 11 10 8 8 9 8
8 8 8 7 6 6 5 6 5 5 6 5 5 4 3 2 3 5 5 5 6 7 7 7 8 7 6 4 4 6 5 2 1 4 8 11 12 11 10 9 8 8 8
8 8 8 6 5 5 5 3 3 3 4 3 4 2 2 1 1 2 2 2 3 3 3 3 3 4 3 3 3 3 2 2 1 5 8 12 11 11 10 9 9 8 8
8 7 8 7 6 5 4 2 3 2 3 4 5 3 1 1 1 1 1 1 0 1 1 1 1 1 2 2 3 2 1 0 1 3 7 11 12 11 11 10 10 9 9
8 7 6 7 7 5 4 3 3 3 2 3 4 3 2 2 2 1 1 0 0 1 1 1 1 1 1 1 1 0 1 1 1 4 6 9 11 11 11 11 10 9 9
8 8 6 7 7 5 5 3 3 2 2 3 4 4 2 2 2 1 1 1 0 1 1 1 1 0 2 2 1 2 2 2 2 2 3 5 8 10 10 10 11 10 10
8 7 7 6 6 4 4 3 2 2 2 2 4 4 3 2 2 1 1 1 1 1 1 0 0 0 0 1 1 2 1 2 3 3 3 4 5 7 9 10 10 11 11
8 7 7 6 6 5 4 3 2 2 2 2 3 4 3 2 2 1 1 1 2 2 1 1 1 0 1 1 2 2 2 2 3 4 3 3 5 7 8 10 11 11 12
8 8 7 6 6 5 3 3 2 2 2 2 2 3 4 3 3 2 2 2 2 1 0 0 0 1 1 2 3 2 2 2 2 3 3 4 5 6 7 8 9 10 12
8 8 7 6 6 5 4 4 3 2 2 2 2 3 4 4 3 2 1 1 2 2 2 2 1 2 2 2 2 2 2 3 4 3 2 2 3 4 6 7 7 7 8
10 9 8 7 6 5 4 4 3 3 2 2 2 3 3 4 4 4 2 2 2 2 2 2 2 2 2 2 1 1 1 2 2 4 3 3 3 3 4 6 7 7 7
11 10 8 7 6 5 4 3 3 2 2 2 3 3 3 4 4 3 3 2 2 3 3 3 3 2 2 2 2 1 1 1 1 2 3 3 4 3 2 3 5 7 8
11 10 9 7 6 5 5 4 4 4 3 3 2 2 3 4 4 4 4 3 2 2 3 4 3 2 2 3 2 2 2 1 1 1 2 2 3 4 4 4 3 5 7
10 10 9 8 7 6 5 4 4 3 2 2 2 2 3 3 4 4 4 3 3 3 3 2 2 3 3 3 2 2 2 2 2 2 2 2 2 2 3 3 3 4 6
9 10 9 8 7 6 5 4 4 3 2 2 3 3 3 3 3 4 4 3 3 3 3 3 3 4 3 2 2 2 2 2 2 2 2 3 3 3 3 3 3 3 5
Wind_Direction
107 114 116 115 114 114 116 114 111 107 103 101 98 97 96 95 95 95 96 99 101 104 107 110 108 104 99 101 100 103 105 110 112 109 110 113 118 120 120 127 127 116 118
113 117 118 118 118 119 121 118 115 111 108 105 102 101 101 100 100 100 99 100 101 103 105 108 111 106 102 102 109 111 113 117 126 130 129 132 135 128 126 122 111 116 124
114 120 120 120 121 122 121 121 119 116 113 111 109 107 107 106 105 104 102 101 99 100 104 106 110 112 108 105 108 114 116 121 143 152 151 144 137 128 122 120 120 123 125
117 122 122 123 124 125 125 125 123 119 118 116 116 114 113 113 112 111 110 105 101 100 101 105 106 109 109 110 116 122 126 136 159 167 152 142 137 130 124 122 123 127 128
118 118 120 123 124 127 128 126 125 123 121 120 117 114 113 114 118 116 113 110 106 102 103 105 106 108 112 116 127 139 143 160 188 191 139 115 116 129 128 128 128 129 132
118 119 125 126 126 129 129 128 128 130 127 124 121 117 115 115 118 119 118 115 112 108 107 107 108 112 114 121 130 141 152 169 225 197 157 127 123 131 131 134 135 134 135
114 118 128 129 130 129 130 131 129 132 133 131 132 129 126 125 127 128 127 124 120 117 115 115 115 119 121 129 141 152 169 193 232 228 134 126 134 139 136 138 139 138 139
115 120 131 135 135 135 136 135 133 133 137 136 136 137 137 139 143 142 137 133 130 130 129 126 129 134 136 145 154 167 191 229 211 196 167 130 137 137 142 142 145 147 146
118 125 136 139 138 139 137 137 139 141 142 141 141 145 150 154 156 155 152 148 145 145 148 152 157 160 162 166 176 191 213 234 264 242 162 134 135 136 141 145 150 153 153
118 128 141 139 139 143 144 146 146 145 147 150 152 158 163 167 166 165 164 160 155 159 165 169 173 178 183 187 196 208 225 249 242 223 147 137 138 137 137 148 156 161 159
119 132 138 130 138 145 145 147 152 151 156 162 165 173 176 187 178 172 163 161 173 180 186 188 191 197 203 204 207 213 226 232 221 146 129 139 142 139 138 147 159 166 167
134 138 131 131 141 140 132 139 151 150 150 167 152 163 184 192 166 160 154 169 192 202 205 206 210 214 220 208 205 210 218 218 221 156 139 146 146 146 146 150 164 174 175
139 130 125 129 130 123 121 134 135 135 144 154 140 169 176 178 150 144 159 177 201 215 216 202 213 219 218 209 182 194 204 228 188 132 141 148 149 151 152 156 161 171 178
131 134 124 121 119 105 101 114 138 133 139 145 146 160 156 164 149 137 144 180 190 201 218 189 206 205 209 208 196 201 187 211 187 142 152 154 153 156 160 164 167 174 179
138 135 132 135 114 104 100 127 118 119 147 145 142 155 190 154 109 104 83 36 190 164 211 237 248 199 211 212 213 208 153 217 230 148 146 161 163 164 168 174 179 185 188
141 137 134 128 123 125 130 132 138 150 156 138 130 126 117 118 120 107 157 250 301 357 345 280 237 239 214 231 258 287 175 220 171 143 155 163 168 172 176 181 183 185 189
139 132 131 135 129 136 141 160 151 160 158 132 123 127 127 112 132 153 184 189 85 270 269 292 289 171 220 221 204 235 205 191 165 148 165 167 173 179 181 184 186 188 192
143 138 144 149 141 144 148 169 163 153 131 124 132 128 137 142 148 208 187 144 231 254 240 224 253 331 280 283 251 244 224 179 173 184 193 185 172 174 180 187 188 192 196
145 144 151 145 147 153 161 170 159 127 127 131 134 137 145 148 151 195 192 183 224 223 227 235 116 310 273 270 267 229 213 202 185 201 191 195 181 171 173 186 195 199 201
147 149 153 151 146 158 165 163 175 159 153 141 135 137 148 162 177 194 196 187 230 207 175 163 259 257 261 250 258 253 224 206 204 193 193 195 181 185 180 180 189 201 208
152 155 157 163 159 167 171 173 186 182 176 171 156 151 160 177 184 217 213 205 231 184 188 199 208 237 242 240 248 265 231 213 197 183 193 184 189 192 188 177 183 194 200
163 163 164 167 168 180 175 178 190 187 186 182 171 156 179 189 191 206 199 204 190 181 205 210 213 226 231 220 224 244 233 216 219 208 184 188 208 203 200 199 195 198 199
169 167 169 170 171 181 176 184 195 185 194 191 178 179 191 197 198 211 199 210 197 197 192 212 228 225 247 245 216 229 252 236 224 202 208 203 195 199 214 203 201 201 201
172 166 162 163 169 178 180 192 193 193 205 204 194 192 197 193 198 208 207 206 221 220 196 216 200 232 239 254 232 212 218 160 240 246 238 220 202 198 211 232 216 201 197
167 164 162 163 167 172 183 186 194 209 212 196 187 189 199 203 205 206 206 201 217 228 204 205 212 229 240 257 257 226 224 222 229 227 255 260 251 224 215 222 215 200 196
164 163 160 159 163 169 181 192 195 203 203 212 212 205 208 201 206 206 209 203 214 225 212 214 216 230 238 254 266 258 247 234 231 234 245 254 253 249 233 224 213 200 202
Height
1501 1502 1503 1505 1505 1507 1508 1510 1511 1512 1514 1515 1516 1518 1519 1520 1521 1523 1524 1525 1526 1527 1528 1529 1531 1532 1533 1534 1535 1536 1537 1538 1540 1542 1543 1544 1546 1548 1549 1551 1553 1555 1557
1501 1502 1504 1505 1506 1508 1509 1510 1512 1513 1515 1516 1517 1519 1520 1521 1523 1524 1525 1526 1528 1529 1530 1531 1532 1533 1534 1535 1536 1537 1538 1539 1541 1542 1544 1545 1546 1547 1549 1551 1553 1555 1558
1501 1502 1504 1506 1507 1508 1509 1511 1513 1514 1516 1517 1518 1520 1521 1522 1524 1525 1526 1527 1529 1530 1531 1532 1533 1534 1535 1536 1537 1538 1539 1540 1542 1543 1544 1545 1545 1546 1549 1551 1554 1556 1558
1502 1503 1505 1506 1508 1509 1510 1512 1513 1515 1516 1518 1519 1520 1522 1523 1524 1526 1527 1528 1529 1530 1532 1533 1534 1535 1536 1537 1538 1539 1540 1541 1542 1544 1545 1546 1547 1548 1550 1552 1554 1556 1559
1503 1503 1505 1507 1508 1509 1511 1513 1514 1516 1517 1518 1520 1521 1522 1524 1525 1526 1528 1529 1530 1531 1532 1533 1534 1535 1536 1538 1539 1540 1541 1542 1543 1544 1545 1546 1548 1549 1551 1553 1555 1557 1559
1504 1504 1505 1507 1509 1510 1511 1513 1514 1516 1517 1519 1520 1521 1523 1524 1525 1527 1528 1529 1530 1531 1533 1534 1535 1536 1537 1538 1539 1540 1541 1542 1544 1545 1546 1547 1548 1549 1551 1553 1555 1557 1559
1504 1504 1506 1507 1509 1510 1512 1513 1515 1516 1517 1519 1520 1522 1523 1524 1526 1527 1528 1529 1530 1532 1533 1534 1535 1536 1537 1538 1539 1540 1542 1543 1544 1545 1546 1547 1548 1549 1550 1553 1555 1557 1559
1504 1505 1506 1507 1509 1510 1512 1513 1515 1516 1517 1519 1520 1522 1523 1525 1526 1527 1528 1529 1530 1532 1533 1534 1535 1536 1537 1538 1539 1540 1541 1542 1544 1545 1546 1547 1548 1548 1550 1552 1554 1557 1559
1505 1505 1506 1508 1509 1511 1512 1513 1515 1516 1517 1519 1520 1522 1523 1525 1526 1527 1528 1529 1530 1531 1532 1534 1535 1536 1537 1538 1539 1540 1541 1542 1543 1544 1546 1547 1547 1548 1550 1551 1554 1556 1558
1505 1506 1507 1509 1510 1511 1513 1514 1515 1516 1517 1519 1520 1522 1523 1525 1526 1527 1528 1529 1530 1531 1532 1533 1534 1535 1536 1537 1539 1540 1541 1542 1543 1544 1545 1545 1546 1548 1549 1551 1552 1555 1557
1505 1505 1507 1509 1511 1512 1513 1514 1515 1516 1518 1519 1521 1522 1524 1525 1526 1527 1528 1529 1530 1531 1532 1533 1534 1535 1536 1537 1538 1539 1540 1541 1542 1543 1544 1545 1546 1547 1549 1550 1551 1553 1555
1505 1506 1507 1508 1510 1513 1514 1514 1515 1517 1518 1519 1521 1522 1524 1525 1526 1527 1528 1529 1530 1531 1531 1532 1533 1534 1535 1536 1537 1539 1540 1541 1542 1543 1543 1544 1545 1547 1548 1549 1550 1552 1554
1504 1506 1507 1509 1511 1512 1514 1514 1516 1517 1518 1520 1521 1522 1523 1525 1526 1527 1527 1528 1529 1530 1531 1532 1532 1533 1535 1536 1537 1538 1539 1540 1541 1542 1542 1543 1545 1546 1547 1548 1549 1551 1552
1504 1505 1506 1509 1510 1511 1512 1515 1516 1518 1519 1519 1520 1522 1523 1524 1525 1526 1526 1527 1528 1529 1530 1531 1532 1533 1534 1535 1536 1537 1538 1539 1540 1541 1541 1542 1543 1544 1545 1547 1548 1549 1551
1503 1504 1506 1507 1509 1510 1512 1514 1515 1518 1519 1519 1520 1521 1522 1523 1524 1525 1525 1526 1527 1529 1530 1530 1531 1532 1533 1534 1535 1537 1537 1538 1539 1539 1540 1541 1542 1543 1544 1545 1546 1548 1549
1502 1504 1505 1506 1508 1510 1512 1513 1515 1516 1518 1518 1519 1520 1521 1522 1522 1523 1524 1525 1526 1527 1528 1529 1530 1531 1531 1532 1534 1535 1536 1536 1537 1538 1539 1539 1540 1541 1542 1544 1545 1546 1547
1501 1502 1504 1506 1507 1509 1511 1513 1515 1516 1517 1518 1518 1519 1520 1520 1521 1522 1523 1524 1524 1526 1527 1528 1528 1529 1530 1531 1532 1533 1534 1535 1536 1537 1538 1538 1539 1540 1541 1542 1543 1544 1545
1499 1500 1502 1505 1506 1507 1510 1512 1514 1515 1516 1517 1517 1518 1518 1519 1520 1520 1521 1522 1523 1524 1525 1526 1527 1528 1528 1529 1530 1532 1533 1534 1534 1535 1536 1537 1538 1538 1539 1540 1541 1542 1543
1497 1499 1501 1502 1504 1506 1508 1510 1512 1514 1514 1515 1516 1516 1517 1518 1518 1519 1520 1521 1522 1523 1524 1524 1525 1526 1527 1527 1528 1530 1531 1532 1532 1533 1534 1535 1536 1537 1537 1538 1539 1540 1541
1496 1498 1500 1501 1502 1504 1506 1508 1510 1512 1513 1514 1514 1514 1515 1516 1517 1518 1519 1519 1520 1521 1522 1522 1523 1524 1525 1526 1527 1528 1529 1530 1530 1531 1532 1533 1534 1535 1536 1536 1537 1538 1539
1494 1496 1498 1500 1501 1502 1504 1506 1508 1510 1511 1512 1513 1513 1514 1515 1515 1516 1517 1517 1518 1519 1520 1520 1521 1522 1523 1524 1525 1526 1527 1528 1528 1529 1530 1531 1532 1532 1534 1534 1535 1536 1536
1491 1494 1496 1498 1499 1501 1503 1504 1506 1508 1509 1510 1511 1512 1512 1513 1514 1514 1515 1515 1516 1517 1517 1518 1520 1520 1522 1523 1524 1524 1525 1527 1526 1528 1528 1529 1530 1531 1531 1532 1532 1533 1534
1489 1491 1494 1496 1498 1499 1501 1503 1505 1506 1507 1508 1509 1509 1510 1511 1511 1512 1512 1513 1514 1514 1515 1516 1517 1518 1519 1521 1522 1523 1523 1524 1525 1526 1526 1527 1528 1529 1529 1530 1530 1530 1531
1487 1490 1492 1494 1496 1498 1499 1501 1502 1503 1504 1506 1507 1507 1508 1509 1509 1510 1510 1511 1511 1512 1513 1514 1515 1516 1517 1518 1520 1521 1522 1522 1523 1524 1525 1525 1525 1526 1527 1527 1527 1528 1528
1485 1488 1489 1491 1493 1495 1497 1498 1500 1501 1502 1504 1505 1505 1506 1506 1507 1507 1508 1508 1509 1510 1511 1512 1513 1514 1515 1516 1517 1519 1520 1521 1521 1522 1522 1523 1523 1523 1524 1524 1524 1525 1525
1484 1486 1487 1489 1491 1493 1495 1496 1497 1499 1500 1501 1502 1503 1503 1504 1504 1505 1506 1506 1507 1507 1508 1509 1510 1511 1513 1514 1515 1516 1517 1518 1519 1520 1520 1520 1520 1520 1521 1520 1520 1521 1522